Regional Weather Roundup
Issued by NWS Albany, NY

Home | Current Version | Previous Version | Text Only | Print | Product List | Glossary On
Versions: 1 2 3 4 5 6 7 8 9 10 11 12 13 14 15 16 17 18 19 20 21 22 23 24 25 26 27 28 29 30 31 32 33 34 35 36 37 38 39 40 41 42 43 44 45 46 47 48 49 50
000
ASUS41 KALY 230710
RWRALY

NEW YORK STATE HOURLY WEATHER ROUNDUP
NATIONAL WEATHER SERVICE ALBANY NY
200 AM EST SUN NOV 23 2014

NOTE: "FAIR" INDICATES FEW OR NO CLOUDS BELOW 12,000 FEET WITH NO
SIGNIFICANT WEATHER AND/OR NO OBSTRUCTIONS TO VISIBILITY.

NYZ032-033-038>043-046>054-057>066-NYZ062>081-230800-
EAST


CITY           SKY/WX    TMP DP  RH WIND       PRES   REMARKS
ALBANY         LGT RAIN  36  30  79 S12       30.09S WCI  28
GLENS FALLS    CLOUDY    37  28  70 S7        30.06S WCI  32
POUGHKEEPSIE   CLOUDY    43  19  38 SW8       30.16S
NEWBURGH       MOCLDY    39  21  48 SW6       30.16S WCI  35
MONTGOMERY     CLOUDY    39  20  46 SW7       30.14S WCI  34
WHITE PLAINS   CLOUDY    42  18  37 W3        30.16R
ISLIP          MOCLDY    44  26  49 SW12      30.18S
NEW YORK CITY  CLOUDY    45  21  38 SW12      30.18F
CENTRAL PARK   CLOUDY    45  20  36 W9        30.20S
$$

NYZ005>009-017-018-044>046-055-056-230800-
CENTRAL


CITY           SKY/WX    TMP DP  RH WIND       PRES   REMARKS
FULTON         LGT RAIN  43  39  86 S7        30.00S
SYRACUSE       LGT RAIN  47  41  80 SW12      30.02R
ROME           RAIN      38  37  97 E8        30.05S FOG     WCI  32
ELMIRA         CLOUDY    44  36  73 W6        30.07S
BINGHAMTON     CLOUDY    38  29  70 SW13      30.06S WCI  30
MONTICELLO     CLOUDY    37  21  52 W3        30.13S
$$

NYZ026>034-041>043-230800-
NORTH


CITY           SKY/WX    TMP DP  RH WIND       PRES   REMARKS
WATERTOWN      LGT RAIN  44  38  79 S12G20    29.97R
FORT DRUM      NOT AVBL
MASSENA        LGT RAIN  41  40  96 SW13      29.94R FOG
SARANAC LAKE   MIX PCPN  37  36  96 SW12      29.91R WCI  29
PLATTSBURGH    CLOUDY    39  30  70 S8        29.94R WCI  33
$$

NYZ001>004-010>016-019>021-230800-
WEST


CITY           SKY/WX    TMP DP  RH WIND       PRES   REMARKS
NIAGARA FALLS  CLOUDY    46  40  79 SW15      29.97S
BUFFALO        CLOUDY    41  38  89 S12       30.00R
DUNKIRK        CLOUDY    44  37  76 S20       30.00F
JAMESTOWN      CLOUDY    41  36  81 SW10      30.03S
WELLSVILLE     LGT RAIN  43  35  73 SW13G20   30.05S
ROCHESTER      CLOUDY    43  41  93 SW9       30.00R
PENN YAN       CLOUDY    47  38  71 SW17G24   30.03R
$$

             KEY
       WCI = WIND CHILL INDEX
       VSB = VISIBILITY
       HX  = HEAT INDEX
$$



USA.gov is the U.S. government's official web portal to all federal, state and local government web resources and services.